FW4179 Weather Reports


Display with metric or nautical units.
time (UTC)temp
F
wind
direction
speed
MPH
gust
MPH
rain 1hr
in
rain 24hr
in
rain mn
in
humidity
%
barometer
mb
20260901224603 98 0 0.0 0.0 0.00 0.00 0.00 48 1019.1
20260901223058 98 0 0.0 1.0 0.00 0.00 0.00 48 1019.1
20260901221603 97 0 0.0 3.0 0.00 0.00 0.00 50 1019.0
20260901220054 97 0 0.0 4.0 0.00 0.00 0.00 50 1019.1
20260901214602 97 0 0.0 2.0 0.00 0.00 0.00 52 1019.1
20260901213102 96 0 0.0 3.0 0.00 0.00 0.00 50 1019.2
20260901211551 97 0 0.0 3.0 0.00 0.00 0.00 51 1019.2
20260901210115 95 0 0.0 2.0 0.00 0.00 0.00 47 1019.3
20260901204552 95 0 0.0 3.0 0.00 0.00 0.00 49 1019.3
20260901203053 95 0 1.0 4.0 0.00 0.00 0.00 53 1019.5
20260901201558 95 28 0.0 3.0 0.00 0.00 0.00 56 1019.7
20260901200105 94 0 1.0 3.0 0.00 0.00 0.00 56 1019.8
20260901194556 93 0 1.0 4.0 0.00 0.00 0.00 57 1019.9
20260901193100 93 0 0.0 6.0 0.00 0.00 0.00 56 1019.9
20260901191555 93 287 3.0 6.0 0.00 0.00 0.00 55 1020.3
20260901190057 92 161 2.0 4.0 0.00 0.00 0.00 57 1020.5
20260901184606 91 0 0.0 3.0 0.00 0.00 0.00 61 1020.6
20260901183106 89 0 0.0 0.0 0.00 0.00 0.00 63 1020.7
20260901181603 91 0 0.0 0.0 0.00 0.00 0.00 64 1020.8
20260901180056 92 0 0.0 5.0 0.00 0.00 0.00 60 1020.9
20260901174556 91 0 0.0 7.0 0.00 0.00 0.00 64 1021.1
20260901173058 90 0 0.0 7.0 0.00 0.00 0.00 65 1021.3
20260901171602 90 0 0.0 5.0 0.00 0.00 0.00 68 1021.5
20260901170058 89 0 1.0 5.0 0.00 0.00 0.00 64 1021.8
20260901164554 90 306 0.0 4.0 0.00 0.00 0.00 69 1021.9
20260901163103 89 0 0.0 7.0 0.00 0.00 0.00 67 1022.1
20260901161619 88 0 2.0 7.0 0.00 0.00 0.00 67 1022.2
20260901154614 87 323 0.0 3.0 0.00 0.00 0.00 72 1022.2
20260901153106 86 240 0.0 4.0 0.00 0.00 0.00 72 1022.2
20260901151600 85 0 0.0 0.0 0.00 0.00 0.00 75 1022.1
20260901150107 85 0 0.0 6.0 0.00 0.00 0.00 74 1022.3
20260901144600 84 0 0.0 2.0 0.00 0.00 0.00 79 1022.3
20260901143059 81 0 0.0 4.0 0.00 0.00 0.00 80 1022.3
20260901141559 80 0 0.0 3.0 0.00 0.00 0.00 82 1022.3
20260901134556 78 0 0.0 0.0 0.00 0.00 0.00 86 1022.4
20260901133101 76 0 0.0 0.0 0.00 0.00 0.00 88 1022.3
20260901131602 75 0 0.0 0.0 0.00 0.00 0.00 91 1022.4
20260901130056 74 0 0.0 0.0 0.00 0.00 0.00 94 1022.4
20260901124558 73 0 0.0 0.0 0.00 0.00 0.00 95 1022.2
20260901123057 72 0 0.0 0.0 0.00 0.00 0.00 96 1022.0
20260901121558 72 0 0.0 0.0 0.00 0.00 0.00 96 1021.8
20260901120108 71 0 0.0 0.0 0.00 0.00 0.00 97 1021.5
20260901114606 71 0 0.0 0.0 0.00 0.00 0.00 97 1021.3
20260901113100 71 0 0.0 0.0 0.00 0.00 0.00 97 1021.1
20260901111602 71 0 0.0 0.0 0.00 0.00 0.00 97 1021.0
20260901110100 71 134 1.0 5.0 0.00 0.00 0.00 97 1020.6
20260901104602 71 144 0.0 0.0 0.00 0.00 0.00 97 1020.7
20260901103105 71 0 0.0 0.0 0.00 0.00 0.00 97 1020.6
20260901101556 71 0 0.0 0.0 0.00 0.00 0.00 96 1020.6
20260901100058 72 0 0.0 0.0 0.00 0.00 0.00 95 1020.6
20260901094601 72 0 0.0 2.0 0.00 0.00 0.00 95 1020.4
20260901093100 72 0 0.0 0.0 0.00 0.00 0.00 95 1020.4
20260901091615 72 0 0.0 0.0 0.00 0.00 0.00 94 1020.4
20260901090104 73 0 0.0 0.0 0.00 0.00 0.00 93 1020.2
20260901084604 73 0 0.0 0.0 0.00 0.00 0.00 93 1020.1
20260901083106 73 0 0.0 0.0 0.00 0.00 0.00 94 1020.1
20260901081552 73 0 0.0 0.0 0.00 0.00 0.00 95 1020.0
20260901074555 73 0 0.0 0.0 0.00 0.00 0.00 93 1020.0
20260901073105 74 0 0.0 0.0 0.00 0.00 0.00 92 1020.0
20260901071558 74 0 0.0 0.0 0.00 0.00 0.00 93 1020.2
20260901064558 73 0 0.0 0.0 0.00 0.00 0.00 93 1020.4
20260901063058 74 0 0.0 0.0 0.00 0.00 0.00 93 1020.3
20260901061557 74 0 0.0 0.0 0.00 0.00 0.00 92 1020.3
20260901060054 74 0 0.0 0.0 0.00 0.00 0.00 92 1020.4
20260901054600 75 0 0.0 0.0 0.00 0.00 0.00 91 1020.4
20260901053102 75 0 0.0 0.0 0.00 0.00 0.00 90 1020.5
20260901051559 75 0 0.0 0.0 0.00 0.00 0.00 89 1020.7
20260901050057 76 0 0.0 0.0 0.00 0.00 0.00 89 1020.5
20260901044551 76 0 0.0 0.0 0.00 0.00 0.00 88 1020.6
20260901043101 77 0 0.0 0.0 0.00 0.00 0.00 87 1020.6
20260901041555 77 0 0.0 0.0 0.00 0.00 0.00 86 1020.5
20260901040057 78 0 0.0 0.0 0.00 0.00 0.00 86 1020.4
20260901034557 78 0 0.0 0.0 0.00 0.00 0.00 86 1020.3
20260901033055 78 0 0.0 0.0 0.00 0.00 0.00 85 1020.4
20260901031554 79 0 0.0 0.0 0.00 0.00 0.00 84 1020.4
20260901030055 79 0 0.0 0.0 0.00 0.00 0.00 83 1020.4
20260901024550 79 0 0.0 0.0 0.00 0.00 0.00 82 1020.3
20260901023059 80 0 0.0 0.0 0.00 0.00 0.00 80 1020.2
20260901021554 80 0 0.0 0.0 0.00 0.00 0.00 80 1020.3
20260901020059 80 0 0.0 0.0 0.00 0.00 0.00 80 1020.1
20260901014556 82 0 0.0 0.0 0.00 0.00 0.00 77 1019.9
20260901013115 82 0 0.0 0.0 0.00 0.00 0.00 76 1019.8
20260901011556 83 0 0.0 0.0 0.00 0.00 0.00 74 1019.6
20260901010059 84 0 0.0 0.0 0.00 0.00 0.00 73 1019.5
20260901004607 84 0 0.0 2.0 0.00 0.00 0.00 72 1019.4
20260901003056 85 0 0.0 0.0 0.00 0.00 0.00 71 1019.3
20260901001556 85 0 0.0 0.0 0.00 0.00 0.00 70 1019.3
20260901000052 86 0 0.0 1.0 0.00 0.00 0.00 69 1019.4
20260831234616 87 155 1.0 3.0 0.00 0.00 0.00 67 1019.4
20260831233057 89 155 0.0 4.0 0.00 0.00 0.00 65 1019.5
20260831231603 90 126 1.0 8.0 0.00 0.00 0.00 61 1019.6
20260831230056 94 179 2.0 4.0 0.00 0.00 0.00 55 1019.6